WX1PBD Weather Reports


Display with metric or nautical units.
time (UTC)temp
F
wind
direction
speed
MPH
gust
MPH
rain 1hr
in
rain 24hr
in
rain mn
in
humidity
%
barometer
mb
20260507223504 61 268 5.0 14.0 0.00 0.13 0.08 31 1006.8
20260507223008 61 262 3.0 12.0 0.00 0.13 0.08 32 1006.7
20260507221504 62 260 6.0 18.0 0.00 0.13 0.08 30 1006.6
20260507221008 62 280 6.0 14.0 0.00 0.13 0.08 30 1006.5
20260507220504 62 267 6.0 12.0 0.00 0.13 0.08 30 1006.5
20260507215504 62 253 6.0 17.0 0.00 0.14 0.08 30 1006.4
20260507215008 63 260 9.0 17.0 0.00 0.14 0.08 30 1006.3
20260507214504 63 315 8.0 20.0 0.00 0.14 0.08 30 1006.3
20260507214008 62 311 5.0 14.0 0.00 0.14 0.08 31 1006.2
20260507213504 62 252 10.0 14.0 0.00 0.14 0.08 31 1006.3
20260507213009 63 284 7.0 18.0 0.00 0.14 0.08 31 1006.2
20260507212505 63 258 7.0 14.0 0.00 0.14 0.08 31 1006.1
20260507212007 64 258 6.0 12.0 0.00 0.14 0.08 31 1006.1
20260507211008 63 332 4.0 8.0 0.00 0.14 0.08 31 1005.9
20260507210504 63 278 4.0 9.0 0.00 0.14 0.08 32 1006.1
20260507210005 63 254 7.0 14.0 0.00 0.14 0.08 31 1006.0
20260507205504 63 244 8.0 13.0 0.00 0.14 0.08 31 1006.1
20260507205009 64 284 8.0 13.0 0.00 0.14 0.08 30 1006.0
20260507204505 64 286 6.0 12.0 0.00 0.14 0.08 31 1006.1
20260507204008 64 252 6.0 13.0 0.00 0.14 0.08 31 1006.0
20260507203504 64 258 7.0 13.0 0.00 0.14 0.08 31 1006.1
20260507203010 64 288 4.0 13.0 0.00 0.14 0.08 31 1006.1
20260507202505 64 253 6.0 13.0 0.00 0.14 0.08 29 1006.0
20260507202009 64 273 5.0 12.0 0.00 0.14 0.08 29 1006.1
20260507201504 64 280 3.0 13.0 0.00 0.14 0.08 30 1006.1
20260507201008 64 286 3.0 17.0 0.00 0.15 0.08 30 1006.1
20260507200504 64 281 7.0 13.0 0.00 0.15 0.08 30 1006.1
20260507200004 64 272 3.0 12.0 0.00 0.15 0.08 29 1006.2
20260507195505 64 327 5.0 10.0 0.00 0.15 0.08 29 1006.2
20260507195009 63 327 5.0 12.0 0.00 0.15 0.08 30 1006.4
20260507194505 64 253 7.0 14.0 0.00 0.15 0.08 30 1006.5
20260507194009 64 270 6.0 12.0 0.00 0.16 0.08 29 1006.4
20260507193505 64 286 6.0 15.0 0.00 0.16 0.08 29 1006.4
20260507193008 64 277 6.0 12.0 0.00 0.16 0.08 29 1006.5
20260507192505 64 329 6.0 10.0 0.00 0.16 0.08 28 1006.6
20260507191505 64 346 4.0 13.0 0.00 0.16 0.08 28 1006.7
20260507191009 65 279 6.0 18.0 0.00 0.16 0.08 29 1006.8
20260507185504 64 354 5.0 12.0 0.00 0.16 0.08 30 1006.9
20260507185008 64 289 8.0 18.0 0.00 0.16 0.08 29 1007.0
20260507184504 64 317 5.0 12.0 0.00 0.16 0.08 30 1006.9
20260507184009 64 272 6.0 14.0 0.00 0.16 0.08 31 1006.9
20260507183505 63 280 7.0 14.0 0.00 0.16 0.08 32 1006.8
20260507183009 64 250 11.0 20.0 0.00 0.16 0.08 31 1006.9
20260507182504 64 300 8.0 14.0 0.00 0.16 0.08 31 1006.7
20260507182009 64 316 2.0 12.0 0.00 0.16 0.08 32 1006.8
20260507181008 63 313 5.0 16.0 0.00 0.16 0.08 34 1006.9
20260507180504 63 326 5.0 14.0 0.00 0.16 0.08 35 1006.9
20260507180004 63 335 4.0 12.0 0.00 0.16 0.08 35 1006.9
20260507175504 63 274 6.0 12.0 0.00 0.16 0.08 36 1007.1
20260507175009 63 327 6.0 13.0 0.00 0.16 0.08 35 1006.9
20260507174505 63 273 9.0 14.0 0.00 0.16 0.08 36 1007.0
20260507173504 63 240 6.0 14.0 0.00 0.16 0.08 39 1006.9
20260507173008 63 251 5.0 12.0 0.00 0.16 0.08 39 1006.8
20260507172504 63 273 5.0 13.0 0.00 0.16 0.08 42 1007.0
20260507172008 62 289 6.0 13.0 0.00 0.16 0.08 42 1006.9
20260507171504 63 226 6.0 13.0 0.00 0.16 0.08 44 1007.1
20260507171008 62 305 7.0 13.0 0.00 0.16 0.08 48 1007.2
20260507170504 61 238 5.0 10.0 0.00 0.16 0.08 48 1007.2
20260507170004 61 297 6.0 15.0 0.00 0.16 0.08 46 1007.1
20260507165504 60 314 5.0 12.0 0.00 0.16 0.08 49 1007.2
20260507165008 60 268 9.0 16.0 0.00 0.16 0.08 50 1007.3
20260507164505 60 267 6.0 13.0 0.00 0.16 0.08 50 1007.3
20260507163504 61 257 6.0 14.0 0.00 0.16 0.08 51 1007.5
20260507163009 60 245 3.0 9.0 0.00 0.16 0.08 53 1007.5
20260507162505 60 241 3.0 8.0 0.00 0.16 0.08 53 1007.6
20260507162008 61 261 3.0 9.0 0.00 0.16 0.08 52 1007.7
20260507161008 62 294 5.0 10.0 0.00 0.16 0.08 50 1007.7
20260507160504 61 249 1.0 6.0 0.00 0.16 0.08 54 1007.9
20260507160005 59 320 3.0 8.0 0.00 0.16 0.08 54 1007.9
20260507155008 59 244 6.0 12.0 0.00 0.16 0.08 52 1008.1
20260507154504 60 294 6.0 12.0 0.00 0.16 0.08 51 1008.1
20260507154009 60 245 5.0 12.0 0.00 0.16 0.08 52 1008.0
20260507153505 59 268 3.0 9.0 0.00 0.16 0.08 52 1008.1
20260507153008 59 283 6.0 12.0 0.00 0.16 0.08 52 1008.1
20260507152504 59 251 5.0 9.0 0.00 0.16 0.08 52 1008.2
20260507151008 61 275 5.0 12.0 0.00 0.16 0.08 49 1008.4
20260507150005 59 324 6.0 12.0 0.00 0.16 0.08 49 1008.4
20260507145504 60 257 5.0 13.0 0.00 0.16 0.08 49 1008.5
20260507145008 60 273 3.0 15.0 0.00 0.16 0.08 50 1008.5
20260507144504 59 302 3.0 10.0 0.00 0.16 0.08 50 1008.6
20260507143505 58 289 5.0 10.0 0.00 0.16 0.08 51 1008.6
20260507143008 58 282 5.0 12.0 0.00 0.16 0.08 52 1008.6
20260507142505 58 254 3.0 9.0 0.00 0.16 0.08 53 1008.6
20260507142008 57 348 3.0 9.0 0.00 0.16 0.08 53 1008.7
20260507141504 58 245 7.0 13.0 0.00 0.16 0.08 52 1008.6
20260507141009 58 306 2.0 12.0 0.00 0.16 0.08 54 1008.6
20260507140505 58 270 3.0 12.0 0.00 0.16 0.08 54 1008.6
20260507140004 57 278 5.0 10.0 0.00 0.16 0.08 55 1008.6
20260507135504 57 230 2.0 6.0 0.00 0.16 0.08 57 1008.6
20260507135008 57 310 2.0 3.0 0.00 0.16 0.08 60 1008.6
20260507134504 56 42 2.0 9.0 0.00 0.16 0.08 60 1008.6
20260507134009 56 352 5.0 9.0 0.00 0.16 0.08 59 1008.7
20260507133505 56 332 4.0 10.0 0.00 0.16 0.08 61 1008.7
20260507133008 56 319 2.0 6.0 0.00 0.16 0.08 63 1008.8
20260507132504 55 336 4.0 10.0 0.00 0.16 0.08 64 1008.9
20260507132008 55 342 2.0 5.0 0.00 0.16 0.08 64 1008.9
20260507131504 55 331 2.0 7.0 0.00 0.16 0.08 64 1008.9
20260507131008 54 1 3.0 6.0 0.00 0.16 0.08 64 1009.0
20260507130504 54 320 2.0 7.0 0.00 0.16 0.08 68 1009.0
20260507130005 53 271 3.0 6.0 0.00 0.16 0.08 70 1009.1
20260507125008 52 303 3.0 7.0 0.00 0.16 0.08 75 1009.2
20260507124505 52 323 1.0 5.0 0.00 0.16 0.08 77 1009.2
20260507124008 51 275 3.0 12.0 0.00 0.16 0.08 79 1009.2
20260507123505 51 318 3.0 9.0 0.00 0.16 0.08 79 1009.1
20260507123008 51 291 2.0 9.0 0.00 0.16 0.08 83 1008.9
20260507122504 51 283 3.0 6.0 0.00 0.16 0.08 84 1009.1
20260507122008 50 301 3.0 5.0 0.00 0.16 0.08 85 1009.0
20260507121504 50 318 3.0 8.0 0.00 0.16 0.08 85 1009.0
20260507121008 49 272 3.0 8.0 0.00 0.16 0.08 86 1009.0
20260507120504 49 287 4.0 9.0 0.00 0.16 0.08 87 1008.9
20260507120005 49 271 2.0 7.0 0.00 0.16 0.08 88 1008.9
20260507115504 49 285 3.0 7.0 0.00 0.16 0.08 89 1009.0
20260507115008 49 287 2.0 7.0 0.00 0.16 0.08 89 1009.0
20260507114504 48 279 3.0 6.0 0.00 0.16 0.08 89 1008.8
20260507114008 48 285 2.0 3.0 0.00 0.16 0.08 90 1008.8
20260507113504 48 285 3.0 7.0 0.00 0.16 0.08 90 1009.0
20260507112504 48 278 2.0 3.0 0.00 0.16 0.08 91 1008.7
20260507112008 48 274 2.0 3.0 0.00 0.16 0.08 91 1008.7
20260507111504 48 295 1.0 3.0 0.00 0.16 0.08 91 1008.6
20260507111007 48 263 1.0 3.0 0.00 0.16 0.08 91 1008.7
20260507110005 48 264 1.0 3.0 0.01 0.16 0.08 91 1008.8
20260507105504 48 289 1.0 3.0 0.01 0.16 0.08 91 1008.9
20260507105008 48 264 1.0 3.0 0.02 0.16 0.08 92 1009.0
20260507104504 48 264 1.0 2.0 0.02 0.16 0.08 91 1009.0
20260507103008 48 298 2.0 3.0 0.02 0.16 0.08 91 1008.5
20260507102509 48 299 0.0 1.0 0.03 0.16 0.08 91 1008.3
20260507102008 48 300 2.0 3.0 0.04 0.16 0.08 91 1008.4
20260507101508 48 295 2.0 7.0 0.05 0.16 0.08 91 1008.6
20260507101042 48 284 1.0 3.0 0.05 0.16 0.08 91 1008.5
20260507100504 49 284 2.0 3.0 0.04 0.15 0.07 90 1008.3
20260507100004 49 253 0.0 3.0 0.05 0.15 0.07 90 1008.2
20260507095007 49 280 2.0 6.0 0.04 0.14 0.06 90 1008.1
20260507094503 49 314 2.0 6.0 0.04 0.14 0.06 90 1008.0
20260507094008 49 298 5.0 9.0 0.04 0.14 0.06 90 1008.3
20260507093504 49 261 2.0 9.0 0.04 0.14 0.06 90 1008.3
20260507093008 50 282 2.0 6.0 0.04 0.14 0.06 90 1008.2
20260507092504 50 267 1.0 3.0 0.03 0.13 0.05 90 1008.2
20260507092008 50 266 1.0 3.0 0.02 0.12 0.04 89 1008.2
20260507091504 50 294 1.0 2.0 0.02 0.11 0.03 89 1008.3
20260507090504 50 266 3.0 5.0 0.02 0.11 0.03 89 1008.5
20260507085504 51 243 3.0 7.0 0.01 0.10 0.02 89 1008.2
20260507085008 51 236 2.0 8.0 0.01 0.10 0.02 89 1008.3
20260507084504 51 275 2.0 6.0 0.02 0.10 0.02 89 1008.2
20260507084009 51 268 3.0 6.0 0.02 0.10 0.02 89 1008.0
20260507083505 51 271 1.0 7.0 0.02 0.10 0.02 89 1008.1
20260507083009 51 281 2.0 10.0 0.02 0.10 0.02 89 1007.9
20260507082505 51 281 2.0 5.0 0.02 0.10 0.02 89 1007.8
20260507082008 51 280 2.0 8.0 0.02 0.10 0.02 88 1007.7
20260507081505 51 278 1.0 8.0 0.01 0.09 0.01 88 1007.7
20260507081008 52 295 1.0 3.0 0.01 0.09 0.01 87 1007.9
20260507080006 52 326 2.0 6.0 0.01 0.09 0.01 86 1008.0
20260507075504 52 308 2.0 6.0 0.01 0.09 0.01 85 1007.9
20260507075010 53 299 2.0 6.0 0.01 0.09 0.01 84 1007.7
20260507074513 53 270 3.0 8.0 0.00 0.08 0.00 83 1008.0
20260507074029 53 270 3.0 8.0 0.00 0.08 0.00 84 1008.0
20260507073514 53 271 5.0 12.0 0.00 0.08 0.00 84 1007.6
20260507073049 53 326 3.0 5.0 0.00 0.08 0.00 85 1007.2
20260507072505 53 309 2.0 3.0 0.00 0.08 0.00 85 1007.1
20260507072009 53 329 1.0 3.0 0.00 0.08 0.00 86 1007.3
20260507071505 53 285 2.0 8.0 0.00 0.08 0.00 86 1007.3
20260507071009 53 266 3.0 8.0 0.00 0.08 0.00 86 1007.4
20260507070009 54 287 2.0 5.0 0.00 0.08 0.00 87 1007.1
20260507065504 54 268 3.0 6.0 0.00 0.08 0.00 87 1007.2
20260507065008 54 277 1.0 6.0 0.00 0.08 0.00 86 1007.2
20260507064505 54 316 1.0 9.0 0.00 0.08 0.00 86 1007.2
20260507064008 54 265 2.0 8.0 0.00 0.08 0.00 87 1007.2
20260507063504 54 267 2.0 7.0 0.00 0.08 0.00 87 1007.2
20260507063008 54 264 3.0 8.0 0.00 0.08 0.00 87 1007.2
20260507062009 55 288 2.0 3.0 0.00 0.08 0.00 89 1006.8
20260507061505 55 311 2.0 3.0 0.00 0.08 0.00 89 1007.0
20260507061009 55 299 2.0 3.0 0.00 0.08 0.00 89 1007.0
20260507060505 56 291 2.0 3.0 0.00 0.08 0.00 90 1007.0
20260507060004 56 285 1.0 6.0 0.00 0.08 0.00 90 1007.1
20260507055009 56 289 3.0 8.0 0.00 0.08 0.00 89 1007.3
20260507054505 56 322 2.0 3.0 0.00 0.08 0.00 89 1007.5
20260507054008 56 295 5.0 10.0 0.00 0.08 0.00 89 1007.5
20260507053504 56 315 2.0 9.0 0.00 0.08 0.00 89 1007.3
20260507053008 56 265 3.0 10.0 0.00 0.08 0.00 89 1007.2
20260507052008 57 276 1.0 9.0 0.00 0.08 0.00 88 1006.9
20260507051008 57 279 5.0 12.0 0.00 0.08 0.00 88 1007.1
20260507050505 57 272 5.0 9.0 0.00 0.08 0.00 87 1007.1
20260507050005 57 278 3.0 7.0 0.00 0.08 0.00 87 1007.2
20260507045505 57 271 6.0 13.0 0.00 0.08 0.00 86 1007.3
20260507045008 57 260 5.0 17.0 0.00 0.08 0.00 87 1007.2
20260507044504 58 258 6.0 12.0 0.00 0.08 0.00 90 1007.2
20260507044008 58 254 4.0 12.0 0.00 0.08 0.00 92 1007.0
20260507043505 58 263 3.0 7.0 0.01 0.08 0.00 93 1006.9
20260507042504 58 263 3.0 7.0 0.01 0.08 0.00 93 1006.9
20260507042008 59 269 3.0 5.0 0.01 0.08 0.00 93 1007.1
20260507041504 59 238 2.0 6.0 0.01 0.08 0.00 93 1007.0
20260507041008 59 275 2.0 6.0 0.01 0.08 0.00 93 1007.1
20260507040505 59 266 3.0 7.0 0.01 0.08 0.00 93 1007.2
20260507040004 59 265 2.0 7.0 0.01 0.08 0.00 93 1007.1
20260507035008 59 256 5.0 9.0 0.01 0.08 0.08 93 1007.1
20260507034504 59 253 4.0 6.0 0.01 0.08 0.08 93 1006.8
20260507034008 59 239 5.0 10.0 0.01 0.08 0.08 93 1007.0
20260507033009 59 276 4.0 7.0 0.00 0.07 0.07 92 1006.9
20260507032504 59 303 3.0 12.0 0.00 0.07 0.07 92 1006.7
20260507032008 59 285 4.0 8.0 0.00 0.07 0.07 92 1006.4
20260507031504 59 285 4.0 10.0 0.00 0.07 0.07 92 1006.4
20260507031008 59 306 3.0 12.0 0.00 0.07 0.07 92 1006.2
20260507030505 59 248 3.0 12.0 0.00 0.07 0.07 92 1006.0
20260507030005 59 185 3.0 8.0 0.00 0.07 0.07 92 1006.1
20260507025504 59 301 5.0 12.0 0.00 0.07 0.07 92 1006.2
20260507024504 59 274 2.0 8.0 0.00 0.07 0.07 92 1006.3
20260507024008 59 163 3.0 12.0 0.00 0.07 0.07 92 1006.4
20260507023504 59 267 3.0 7.0 0.00 0.07 0.07 93 1006.5
20260507022008 58 131 3.0 6.0 0.00 0.07 0.07 93 1006.5
20260507021504 58 292 2.0 3.0 0.00 0.07 0.07 93 1006.5
20260507021009 58 248 3.0 8.0 0.00 0.07 0.07 93 1006.3
20260507020504 58 254 3.0 12.0 0.00 0.07 0.07 93 1006.4
20260507020004 58 280 2.0 9.0 0.00 0.07 0.07 93 1006.5
20260507015504 58 338 2.0 7.0 0.00 0.07 0.07 93 1006.5
20260507015008 58 319 2.0 9.0 0.00 0.07 0.07 92 1006.5
20260507014504 58 266 3.0 8.0 0.00 0.07 0.07 92 1006.6
20260507014008 58 42 3.0 7.0 0.00 0.07 0.07 92 1006.5
20260507013008 58 247 2.0 8.0 0.00 0.07 0.07 92 1006.7
20260507012504 58 245 2.0 10.0 0.00 0.07 0.07 92 1006.8
20260507012008 58 211 3.0 10.0 0.00 0.07 0.07 92 1006.8
20260507011008 58 97 3.0 10.0 0.00 0.07 0.07 92 1006.8
20260507010504 58 79 3.0 8.0 0.01 0.07 0.07 92 1006.8
20260507005008 58 111 3.0 12.0 0.01 0.07 0.07 92 1006.8
20260507004504 58 75 3.0 8.0 0.01 0.07 0.07 92 1006.8
20260507004008 58 284 2.0 9.0 0.01 0.07 0.07 92 1006.8
20260507003504 58 185 3.0 9.0 0.01 0.07 0.07 92 1006.9
20260507003008 58 117 3.0 9.0 0.02 0.07 0.07 92 1006.9
20260507002504 58 249 5.0 9.0 0.03 0.07 0.07 92 1006.8
20260507002007 58 286 3.0 10.0 0.03 0.07 0.07 92 1006.7
20260507001504 58 149 4.0 14.0 0.04 0.07 0.07 92 1006.6
20260507000005 58 296 3.0 12.0 0.03 0.06 0.06 92 1006.5
20260506235504 58 149 3.0 12.0 0.03 0.06 0.06 92 1006.6
20260506235008 59 159 3.0 5.0 0.03 0.06 0.06 92 1006.7
20260506234008 59 129 3.0 8.0 0.03 0.06 0.06 92 1006.6
20260506233505 59 137 2.0 6.0 0.03 0.06 0.06 92 1006.6
20260506233007 59 144 2.0 7.0 0.02 0.05 0.05 91 1006.5
20260506232503 59 218 2.0 5.0 0.01 0.04 0.04 91 1006.6
20260506232008 59 38 2.0 10.0 0.01 0.04 0.04 91 1006.7
20260506231505 59 153 4.0 12.0 0.00 0.03 0.03 91 1006.7
20260506231007 59 206 2.0 5.0 0.00 0.03 0.03 91 1006.6
20260506230504 60 138 3.0 12.0 0.00 0.03 0.03 91 1006.5
20260506230004 60 228 2.0 12.0 0.00 0.03 0.03 91 1006.6
20260506225504 60 167 4.0 9.0 0.01 0.03 0.03 91 1006.8
20260506225008 60 99 5.0 12.0 0.01 0.03 0.03 90 1006.8
20260506224504 60 103 5.0 8.0 0.01 0.03 0.03 90 1006.8